IDEASSat
1 47458U 21006AX 24284.65435152 .00160083 00000-0 17629-2 0 9993
2 47458 97.3122 345.8103 0005369 166.7342 193.4059 15.62592585206478
CubeSX-Sirius-HSE
1 47951U 21022V 24284.86119288 .00182423 00000-0 53023-2 0 9991
2 47951 97.4424 183.4363 0015396 87.7445 272.5561 15.34607811196252
CubeSX-HSE
1 47952U 21022W 24284.80274439 .00170032 00000-0 49156-2 0 9991
2 47952 97.4423 183.4980 0015556 87.0459 273.2564 15.34826906196252
KSU-Cubesat
1 47954U 21022Y 24284.69444857 .00084175 00000-0 20651-2 0 9994
2 47954 97.4428 185.4057 0014380 82.6508 277.6371 15.40285375196087
GRBAlpha
1 47959U 21022AD 24284.82641095 .00176411 00000-0 50877-2 0 9995
2 47959 97.4421 183.6878 0015401 87.0066 273.2939 15.34878968195089
Orbicraft-Zorkiy
1 47960U 21022AE 24284.82300956 .00215037 00000-0 54982-2 0 9994
2 47960 97.4465 185.4827 0014572 84.4207 275.8700 15.38487169195862
TUBIN
1 48900U 21059X 24284.85524161 .00092414 00000-0 25252-2 0 9998
2 48900 97.6596 73.4612 0005891 39.8023 320.3651 15.37018989182648
LEDSAT
1 49069U 21073D 24284.72353212 .00051637 00000-0 16565-2 0 9993
2 49069 97.4246 355.5044 0016087 231.5126 128.4673 15.32029467174091
CUTE
1 49263U 21088D 24284.44607630 .00073004 00000-0 26773-2 0 9994
2 49263 97.4834 350.1357 0012200 44.3331 315.8882 15.27622876167182
TeikyoSat 4
1 49396U 21102B 24284.61183641 .00007406 00000-0 51838-3 0 9992
2 49396 97.4465 325.5974 0011895 239.4369 120.5685 15.05483537160110
Z-Sat
1 49399U 21102E 24284.83208166 .00028971 00000-0 17540-2 0 9990
2 49399 97.4182 327.6955 0018600 215.9875 144.0103 15.10414815160433
KOSEN 1
1 49402U 21102H 24284.61414721 .00019439 00000-0 10609-2 0 9995
2 49402 97.4108 329.3921 0017484 197.5591 162.5038 15.14250818160591
HO-113
1 50466U 21131B 24284.83126091 .00005919 00000-0 18885-2 0 9995
2 50466 98.5232 9.3608 0005028 133.1458 227.0151 14.40086667146649
IRIS-A
1 51044U 22002BN 24284.43092150 .00081532 00000-0 20025-2 0 9994
2 51044 97.3697 351.0456 0004183 351.9068 8.2110 15.40358073152106
Planetum 1
1 52738U 22057G 24284.83897402 .00399533 00000-0 39224-2 0 9996
2 52738 97.5716 56.7177 0000323 268.8203 91.3019 15.64778415132481
Foresail-1
1 52766U 22057AL 24284.34114684 .00074133 00000-0 17978-2 0 9995
2 52766 97.5938 53.2591 0007684 83.4371 276.7749 15.40755615132125
SNUGLITE 2
1 52899U 22065F 24284.37355205 .00006575 00000-0 13286-2 0 9993
2 52899 98.1363 63.4536 0008243 147.7654 212.4052 14.61676444121084
IO-117
1 53106U 22080B 24281.96479996 -.00000003 00000-0 00000-0 0 9997
2 53106 70.1376 153.3488 0008243 81.8360 278.3235 6.42557544 52511
FO-118
1 54684U 22167C 24284.82813052 .00248584 00000-0 54342-2 0 9995
2 54684 97.6158 73.3855 0006439 96.2153 263.9828 15.43187939102049
SSS-2B
1 56184U 23054G 24284.74483919 .00162356 00000-0 20266-2 0 9994
2 56184 97.3469 184.7729 0009563 101.3141 258.9190 15.59269941 84014
SO-120
1 56992U 23084BU 24284.60886255 .00099208 00000-0 22675-2 0 9990
2 56992 97.5382 46.2307 0009491 323.5108 36.5491 15.42422453 73879
MRC-100
1 56993U 23084BV 24284.33662339 .00118233 00000-0 22318-2 0 9990
2 56993 97.5367 46.9249 0009258 314.5200 45.5292 15.47981034 73902
UmKA 1 (RS40S)
1 57172U 23091G 24284.87568529 .00040964 00000-0 24984-2 0 9999
2 57172 97.5983 335.8390 0017722 87.5787 272.7471 15.10078843 70933
CubeBel-2 (EU11S)
1 57175U 23091K 24284.88026430 .00053378 00000-0 31170-2 0 9991
2 57175 97.5983 335.9745 0015860 98.0366 262.2664 15.11608439 70942
VERONIKA
1 58261U 23174F 24284.85131565 .00176165 00000-0 60327-2 0 9999
2 58261 97.4480 359.0598 0010822 192.6798 167.4172 15.29420546 51338
KAFASAT
1 58317U 23174BP 24284.80239876 .00219633 00000-0 61770-2 0 9991
2 58317 97.4419 0.2525 0009537 170.4859 189.6567 15.35557733 51420
ENSO
1 58470U 23185J 24284.86492644 .00106494 00000-0 35895-2 0 9992
2 58470 97.4122 350.7629 0010483 224.6974 135.3423 15.30248448 47789
EIRSAT-1
1 58472U 23185L 24284.83406093 .00111674 00000-0 35930-2 0 9990
2 58472 97.4114 350.9259 0010112 224.5771 135.4658 15.31733327 47794
SO-121
1 58567U 23174CY 24283.96914257 .00409038 00000-0 44644-2 0 9998
2 58567 97.4346 1.8013 0008114 211.9483 148.1284 15.62007421 51452
SONATE-2
1 59112U 24043Q 24284.86189130 .00068309 00000-0 28519-2 0 9990
2 59112 97.4905 47.8580 0013143 248.5632 111.4203 15.23302085 33386
MO-122
1 60209U 24125G 24284.57789504 .00024821 00000-0 10406-2 0 9996
2 60209 97.3083 134.6307 0022849 280.7184 79.1481 15.23254544 14952
GRBBeta
1 60237U 24128C 24284.14270161 .00014757 00000-0 12360-2 0 9995
2 60237 61.9935 202.3598 0020248 349.8163 10.2513 14.98502236 13817
Curium One
1 60242U 24128H 24284.84952256 .00058896 00000-0 48599-2 0 9995
2 60242 61.9837 200.1226 0020629 337.2380 22.7792 14.98439157 13923
ROBUSTA-3A
1 60243U 24128J 24284.86261413 .00059276 00000-0 49251-2 0 9995
2 60243 61.9902 200.2592 0018779 333.2286 26.7832 14.98198319 13929
CatSat
1 60246U 24125J 24284.56310686 .00021751 00000-0 92447-3 0 9992
2 60246 97.2900 135.6903 0048986 230.5897 129.0998 15.21944566 13064
SR-0 DemoSAT
1 60455U 24147B 24284.77792727 .00748398 00000-0 83189-2 0 9996
2 60455 37.3751 309.5078 0023642 118.3603 241.9553 15.59271650 8580
Binar 4
1 60952U 98067WS 24284.73318551 .00355509 00000-0 29366-2 0 9990
2 60952 51.6297 100.5434 0001543 280.3849 79.6973 15.68646132 6603
CosmoGirlSat
1 60953U 98067WT 24284.73361147 .00155377 00000-0 17552-2 0 9995
2 60953 51.6331 101.3014 0004921 91.3872 268.7685 15.61433082 6595
Sakura
1 60954U 98067WU 24284.78035551 .00349506 00000-0 36159-2 0 9991
2 60954 51.6325 100.8638 0003693 93.7892 266.3525 15.63034233 6604
Binar 2
1 60956U 98067WW 24284.49666360 .00296890 00000-0 27621-2 0 9990
2 60956 51.6250 101.9524 0000962 117.1050 243.0043 15.65893681 6555
Binar 3
1 60957U 98067WX 24284.52655416 .00322510 00000-0 26080-2 0 9992
2 60957 51.6272 101.4087 0001664 290.6806 69.4012 15.69265939 8556
